When you browse on this site, cookies collect data to enhance your experience and personalize the content and advertising you see.
Visit our Privacy Policy to learn more. By continuing to use the site, you agree to this use of cookies and data.
  • En España
  • Lista de países
  • Para 7 días
  • Temperatura del agua
  • El tiempo en el mapa
  • Informadores
  • user-avatar
    Iniciar sesión

    Tiempo cada hora Kruhlyky

    Hoy, 21 Septiembre, Sábado

    Tiempo Temperatura Precipitaciones Viento Presión Humedad
    00:00 +2°C° 0 mm 3 mps 735 mmHg 87%
    01:00 +1°C° 0 mm 3 mps 735 mmHg 88%
    02:00 +1°C° 0 mm 3 mps 736 mmHg 90%
    03:00 +1°C° 0 mm 3 mps 736 mmHg 90%
    04:00 0°C° 0 mm 3 mps 736 mmHg 89%
    05:00 +1°C° 0 mm 2 mps 736 mmHg 89%
    06:00 +2°C° 0 mm 3 mps 736 mmHg 83%
    07:00 +3°C° 0 mm 3 mps 736 mmHg 77%
    08:00 +5°C° 0 mm 3 mps 737 mmHg 71%
    09:00 +8°C° 0 mm 3 mps 737 mmHg 64%
    10:00 +10°C° 0 mm 4 mps 737 mmHg 57%
    11:00 +12°C° 0 mm 4 mps 737 mmHg 49%
    12:00 +12°C° 0 mm 5 mps 736 mmHg 53%
    13:00 +10°C° 0 mm 5 mps 736 mmHg 57%
    14:00 +10°C° 0 mm 6 mps 736 mmHg 60%
    15:00 +10°C° 0 mm 6 mps 735 mmHg 64%
    16:00 +10°C° 0 mm 6 mps 735 mmHg 67%
    17:00 +10°C° 0 mm 6 mps 735 mmHg 70%
    18:00 +9°C° 0 mm 5 mps 735 mmHg 72%
    19:00 +9°C° 0 mm 5 mps 735 mmHg 74%
    20:00 +10°C° 0 mm 4 mps 735 mmHg 76%
    21:00 +10°C° 0 mm 5 mps 734 mmHg 74%
    22:00 +10°C° 0 mm 5 mps 734 mmHg 72%
    23:00 +10°C° 0 mm 5 mps 734 mmHg 71%

    Mañana, 22 Septiembre, Domingo

    Tiempo Temperatura Precipitaciones Viento Presión Humedad
    00:00 +10°C° 0 mm 5 mps 734 mmHg 70%
    01:00 +10°C° 0 mm 5 mps 734 mmHg 70%
    02:00 +9°C° 0 mm 5 mps 734 mmHg 69%
    03:00 +8°C° 0 mm 5 mps 733 mmHg 70%
    04:00 +8°C° 0 mm 5 mps 733 mmHg 70%
    05:00 +7°C° 0 mm 5 mps 733 mmHg 71%
    06:00 +8°C° 0 mm 5 mps 733 mmHg 69%
    07:00 +9°C° 0 mm 5 mps 733 mmHg 67%
    08:00 +10°C° 0 mm 6 mps 733 mmHg 64%
    09:00 +11°C° 0 mm 6 mps 733 mmHg 62%
    10:00 +14°C° 0 mm 6 mps 733 mmHg 60%
    11:00 +16°C° 0 mm 6 mps 733 mmHg 58%
    12:00 +17°C° 0 mm 6 mps 733 mmHg 56%
    13:00 +19°C° 0 mm 5 mps 733 mmHg 53%
    14:00 +20°C° 0 mm 5 mps 732 mmHg 51%
    15:00 +19°C° 0 mm 5 mps 732 mmHg 53%
    16:00 +19°C° 0 mm 4 mps 732 mmHg 56%
    17:00 +18°C° 0 mm 3 mps 731 mmHg 58%
    18:00 +16°C° 0 mm 3 mps 731 mmHg 66%
    19:00 +15°C° 0 mm 2 mps 731 mmHg 74%
    20:00 +13°C° 0 mm 2 mps 731 mmHg 82%
    21:00 +12°C° 0 mm 2 mps 731 mmHg 84%
    22:00 +12°C° 0 mm 2 mps 731 mmHg 86%
    23:00 +10°C° 0 mm 2 mps 731 mmHg 88%

    Pasado mañana, 23 Septiembre, Lunes

    Tiempo Temperatura Precipitaciones Viento Presión Humedad
    00:00 +10°C° 0 mm 2 mps 731 mmHg 88%
    01:00 +10°C° 0 mm 2 mps 731 mmHg 89%
    02:00 +9°C° 0 mm 2 mps 732 mmHg 89%
    03:00 +9°C° 0 mm 2 mps 731 mmHg 90%
    04:00 +9°C° 0 mm 2 mps 731 mmHg 91%
    05:00 +9°C° 0 mm 1 mps 731 mmHg 91%
    06:00 +10°C° 0 mm 1 mps 731 mmHg 88%
    07:00 +11°C° 0 mm 1 mps 732 mmHg 85%
    08:00 +12°C° 0 mm 1 mps 732 mmHg 82%
    09:00 +14°C° 0 mm 2 mps 732 mmHg 77%
    10:00 +15°C° 0 mm 2 mps 732 mmHg 71%
    11:00 +17°C° 0 mm 3 mps 732 mmHg 66%
    12:00 +17°C° 0 mm 3 mps 732 mmHg 65%
    13:00 +17°C° 0 mm 3 mps 732 mmHg 63%
    14:00 +17°C° 0 mm 4 mps 731 mmHg 62%
    15:00 +17°C° 0 mm 4 mps 731 mmHg 63%
    16:00 +15°C° 0 mm 4 mps 731 mmHg 64%
    17:00 +15°C° 0 mm 5 mps 731 mmHg 66%
    18:00 +13°C° 0 mm 4 mps 731 mmHg 71%
    19:00 +11°C° 0 mm 4 mps 731 mmHg 75%
    20:00 +10°C° 0 mm 4 mps 731 mmHg 80%
    21:00 +8°C° 0 mm 4 mps 731 mmHg 80%
    22:00 +8°C° 0 mm 3 mps 731 mmHg 81%
    23:00 +8°C° 0 mm 3 mps 731 mmHg 81%

    24 Septiembre, Martes

    Tiempo Temperatura Precipitaciones Viento Presión Humedad
    00:00 +8°C° 0 mm 3 mps 731 mmHg 81%
    01:00 +7°C° 0 mm 3 mps 731 mmHg 82%
    02:00 +7°C° 0 mm 3 mps 731 mmHg 82%
    03:00 +7°C° 0 mm 3 mps 731 mmHg 82%
    04:00 +7°C° 0 mm 3 mps 730 mmHg 81%
    05:00 +7°C° 0 mm 3 mps 730 mmHg 80%
    06:00 +8°C° 0 mm 3 mps 730 mmHg 74%
    07:00 +8°C° 0 mm 4 mps 730 mmHg 67%
    08:00 +10°C° 0 mm 4 mps 730 mmHg 61%
    09:00 +12°C° 0 mm 4 mps 730 mmHg 57%
    10:00 +14°C° 0 mm 4 mps 730 mmHg 53%
    11:00 +17°C° 0 mm 4 mps 731 mmHg 49%
    12:00 +18°C° 0 mm 4 mps 730 mmHg 48%
    13:00 +19°C° 0 mm 3 mps 730 mmHg 46%
    14:00 +20°C° 0 mm 3 mps 729 mmHg 45%
    15:00 +19°C° 0 mm 2 mps 729 mmHg 48%
    16:00 +19°C° 0 mm 2 mps 729 mmHg 51%
    17:00 +20°C° 0 mm 1 mps 728 mmHg 53%
    18:00 +16°C° 0 mm 2 mps 728 mmHg 59%
    19:00 +13°C° 0 mm 3 mps 728 mmHg 64%
    20:00 +11°C° 0 mm 3 mps 728 mmHg 69%
    21:00 +10°C° 0 mm 3 mps 728 mmHg 70%
    22:00 +9°C° 0 mm 3 mps 728 mmHg 71%
    23:00 +8°C° 0 mm 2 mps 729 mmHg 72%

    25 Septiembre, Miércoles

    Tiempo Temperatura Precipitaciones Viento Presión Humedad
    00:00 +8°C° 0 mm 2 mps 728 mmHg 74%
    01:00 +7°C° 0 mm 2 mps 728 mmHg 75%
    02:00 +8°C° 0 mm 1 mps 728 mmHg 77%
    03:00 +8°C° 0 mm 1 mps 728 mmHg 79%
    04:00 +8°C° 0 mm 1 mps 728 mmHg 80%
    05:00 +8°C° 0 mm 1 mps 728 mmHg 82%
    06:00 +9°C° 0 mm 1 mps 728 mmHg 78%
    07:00 +9°C° 0 mm 2 mps 728 mmHg 74%
    08:00 +12°C° 0 mm 2 mps 728 mmHg 70%
    09:00 +14°C° 0 mm 2 mps 728 mmHg 65%
    10:00 +16°C° 0 mm 3 mps 729 mmHg 59%
    11:00 +19°C° 0 mm 3 mps 729 mmHg 54%
    12:00 +19°C° 0 mm 3 mps 728 mmHg 51%
    13:00 +20°C° 0 mm 3 mps 728 mmHg 48%
    14:00 +21°C° 0 mm 4 mps 728 mmHg 45%
    15:00 +20°C° 0 mm 3 mps 728 mmHg 50%
    16:00 +19°C° 0 mm 3 mps 727 mmHg 55%
    17:00 +18°C° 0 mm 3 mps 727 mmHg 61%
    18:00 +16°C° 0 mm 3 mps 727 mmHg 68%
    19:00 +14°C° 0 mm 3 mps 727 mmHg 76%
    20:00 +13°C° 0 mm 3 mps 727 mmHg 83%
    21:00 +13°C° 0.4 mm 3 mps 727 mmHg 86%
    22:00 +12°C° 0.4 mm 4 mps 727 mmHg 89%
    23:00 +12°C° 0.4 mm 4 mps 727 mmHg 91%

    26 Septiembre, Jueves

    Tiempo Temperatura Precipitaciones Viento Presión Humedad
    00:00 +12°C° 0.9 mm 4 mps 727 mmHg 92%
    01:00 +12°C° 0.9 mm 4 mps 726 mmHg 92%
    02:00 +12°C° 0.9 mm 4 mps 726 mmHg 92%
    03:00 +12°C° 0.3 mm 4 mps 726 mmHg 93%
    04:00 +12°C° 0.3 mm 4 mps 726 mmHg 94%
    05:00 +12°C° 0.3 mm 3 mps 726 mmHg 94%
    06:00 +12°C° 0.2 mm 3 mps 726 mmHg 94%
    07:00 +13°C° 0.2 mm 3 mps 726 mmHg 94%
    08:00 +13°C° 0.2 mm 3 mps 726 mmHg 93%
    09:00 +14°C° 0.1 mm 3 mps 727 mmHg 86%
    10:00 +16°C° 0.1 mm 3 mps 727 mmHg 79%
    11:00 +17°C° 0.1 mm 3 mps 728 mmHg 72%
    12:00 +18°C° 0.4 mm 3 mps 728 mmHg 70%
    13:00 +18°C° 0.4 mm 4 mps 728 mmHg 68%
    14:00 +18°C° 0.4 mm 4 mps 727 mmHg 66%
    15:00 +17°C° 0.4 mm 4 mps 728 mmHg 70%
    16:00 +17°C° 0.4 mm 4 mps 728 mmHg 74%
    17:00 +16°C° 0.4 mm 3 mps 728 mmHg 78%
    18:00 +14°C° 0.1 mm 3 mps 728 mmHg 81%
    19:00 +14°C° 0.1 mm 2 mps 728 mmHg 85%
    20:00 +13°C° 0.1 mm 2 mps 728 mmHg 88%
    21:00 +13°C° 0 mm 2 mps 729 mmHg 90%
    22:00 +11°C° 0 mm 3 mps 729 mmHg 92%
    23:00 +11°C° 0 mm 3 mps 729 mmHg 94%
    Mostrar más